Location: Udine
(46.0620°N, 13.2420°E)
Time: 13:20:46
(UTC+01:00)

ISS - Visible Passes

Search period start: 24 January 2019 00:00
Search period end: 03 February 2019 00:00
Orbit: 404 x 410 km, 51.6° (Epoch: 24 January)

Date Brightness Start Highest point End Pass type
(mag) Time Alt. Az. Time Alt. Az. Time Alt. Az.
24 Jan -2.1 17:47:19 10° S 17:49:51 21° SE 17:52:03 12° E visible
24 Jan -2.0 19:22:50 10° WSW 19:24:47 33° W 19:24:47 33° W visible
25 Jan -3.9 18:31:28 10° SW 18:34:45 75° SSE 18:35:41 43° ENE visible
26 Jan -3.2 17:40:16 10° SW 17:43:25 44° SE 17:46:30 11° ENE visible
26 Jan -2.4 19:16:49 10° W 19:19:14 35° NW 19:19:14 35° NW visible
27 Jan -3.5 18:25:15 10° WSW 18:28:31 58° NNW 18:30:00 28° NE visible
27 Jan -0.3 20:02:30 10° WNW 20:02:43 11° WNW 20:02:43 11° WNW visible
28 Jan -3.8 17:33:47 10° WSW 17:37:05 88° NNW 17:40:23 10° ENE visible
28 Jan -2.3 19:10:52 10° WNW 19:13:26 30° NNW 19:13:26 30° NNW visible
29 Jan -2.8 18:19:13 10° W 18:22:20 38° NNW 18:24:07 21° NE visible
29 Jan -0.6 19:56:25 10° WNW 19:56:50 13° NW 19:56:50 13° NW visible
30 Jan -2.4 19:04:51 10° WNW 19:07:30 29° NNW 19:07:30 29° NNW visible
31 Jan -2.5 18:13:12 10° WNW 18:16:12 30° N 18:18:09 17° NE visible
31 Jan -0.9 19:50:07 10° WNW 19:50:52 15° NW 19:50:52 15° NW visible
01 Feb -2.7 18:58:38 10° WNW 19:01:32 32° N 19:01:32 32° N visible
02 Feb -2.6 18:07:04 10° WNW 18:10:02 30° N 18:12:12 15° ENE visible
02 Feb -1.3 19:43:42 10° WNW 19:44:55 20° NW 19:44:55 20° NW visible
